Time,TemperatureF,DewpointF,PressureIn,WindDirection,WindDirectionDegrees,WindSpeedMPH,WindSpeedGustMPH,Humidity,HourlyPrecipIn,Conditions,Clouds,dailyrainin,SoftwareType,DateUTC
2013-04-30 00:30:00,60.0,58.0,-100.00,North,350,0.0,0.0,94,-99.99,,,-99.99,,2013-04-30 04:30:00,
2013-04-30 00:52:00,60.0,59.0,-100.00,ENE,70,2.0,3.0,94,-99.99,,,-99.99,,2013-04-30 04:52:00,
2013-04-30 01:02:00,60.0,58.0,-100.00,North,350,0.0,0.0,94,-99.99,,,-99.99,,2013-04-30 05:02:00,
2013-04-30 01:12:00,60.0,58.0,-100.00,North,350,0.0,0.0,94,-99.99,,,-99.99,,2013-04-30 05:12:00,
2013-04-30 01:22:00,60.0,58.0,-100.00,North,350,0.0,0.0,94,-99.99,,,-99.99,,2013-04-30 05:22:00,
2013-04-30 02:02:00,59.0,57.0,-100.00,NNE,25,0.0,3.0,94,-99.99,,,-99.99,,2013-04-30 06:02:00,
2013-04-30 02:12:00,59.0,57.0,-100.00,NNE,25,0.0,3.0,94,-99.99,,,-99.99,,2013-04-30 06:12:00,
2013-04-30 02:21:00,59.0,57.0,-100.00,NNE,30,0.0,1.0,94,-99.99,,,-99.99,,2013-04-30 06:21:00,
2013-04-30 02:32:00,59.0,57.0,-100.00,NNE,30,0.0,1.0,94,-99.99,,,-99.99,,2013-04-30 06:32:00,
2013-04-30 02:42:00,58.0,56.0,-100.00,NNE,25,0.0,0.0,94,-99.99,,,-99.99,,2013-04-30 06:42:00,
2013-04-30 02:52:00,58.0,56.0,-100.00,NE,35,1.0,1.0,94,-99.99,,,-99.99,,2013-04-30 06:52:00,
2013-04-30 03:02:00,58.0,56.0,-100.00,NE,35,0.0,1.0,94,-99.99,,,-99.99,,2013-04-30 07:02:00,
2013-04-30 03:11:00,58.0,56.0,-100.00,NE,45,0.0,1.0,94,-99.99,,,-99.99,,2013-04-30 07:11:00,
2013-04-30 03:21:00,58.0,57.0,-100.00,NE,45,0.0,0.0,94,-99.99,,,-99.99,,2013-04-30 07:21:00,
2013-04-30 03:32:00,58.0,57.0,-100.00,NE,45,0.0,0.0,94,-99.99,,,-99.99,,2013-04-30 07:32:00,
2013-04-30 03:42:00,59.0,58.0,-100.00,SE,135,2.0,4.0,94,-99.99,,,-99.99,,2013-04-30 07:42:00,
2013-04-30 03:52:00,59.0,57.0,-100.00,ESE,115,1.0,3.0,94,-99.99,,,-99.99,,2013-04-30 07:52:00,
2013-04-30 04:02:00,58.0,56.0,-100.00,East,95,0.0,1.0,94,-99.99,,,-99.99,,2013-04-30 08:02:00,
2013-04-30 04:11:00,57.0,55.0,-100.00,NE,55,0.0,0.0,94,-99.99,,,-99.99,,2013-04-30 08:11:00,
2013-04-30 04:22:00,58.0,56.0,-100.00,NE,50,1.0,2.0,94,-99.99,,,-99.99,,2013-04-30 08:22:00,
2013-04-30 04:32:00,58.0,57.0,-100.00,East,95,0.0,3.0,94,-99.99,,,-99.99,,2013-04-30 08:32:00,
2013-04-30 04:42:00,58.0,56.0,-100.00,NE,55,0.0,1.0,94,-99.99,,,-99.99,,2013-04-30 08:42:00,
2013-04-30 04:50:00,57.0,55.0,-100.00,ENE,65,0.0,0.0,94,-99.99,,,-99.99,,2013-04-30 08:50:00,
2013-04-30 04:52:00,57.0,55.0,-100.00,North,5,0.0,0.0,94,-99.99,,,-99.99,,2013-04-30 08:52:00,
2013-04-30 05:02:00,57.0,55.0,-100.00,NNE,30,0.0,1.0,94,-99.99,,,-99.99,,2013-04-30 09:02:00,
2013-04-30 05:11:00,57.0,55.0,-100.00,NNE,30,0.0,1.0,94,-99.99,,,-99.99,,2013-04-30 09:11:00,
2013-04-30 05:22:00,57.0,55.0,-100.00,ENE,65,0.0,0.0,94,-99.99,,,-99.99,,2013-04-30 09:22:00,
2013-04-30 05:30:00,59.0,57.0,-100.00,ENE,70,0.0,1.0,94,-99.99,,,-99.99,,2013-04-30 09:30:00,
2013-04-30 05:33:00,57.0,55.0,-100.00,ENE,65,0.0,0.0,94,-99.99,,,-99.99,,2013-04-30 09:33:00,
2013-04-30 05:43:00,57.0,55.0,-100.00,ENE,65,0.0,0.0,94,-99.99,,,-99.99,,2013-04-30 09:43:00,
2013-04-30 06:03:00,59.0,57.0,-100.00,ENE,70,0.0,1.0,94,-99.99,,,-99.99,,2013-04-30 10:03:00,
2013-04-30 06:12:00,59.0,57.0,-100.00,ENE,70,0.0,1.0,94,-99.99,,,-99.99,,2013-04-30 10:12:00,
2013-04-30 06:22:00,59.0,57.0,-100.00,ENE,70,0.0,1.0,94,-99.99,,,-99.99,,2013-04-30 10:22:00,
2013-04-30 06:41:00,58.0,57.0,-100.00,ESE,110,0.0,2.0,94,-99.99,,,-99.99,,2013-04-30 10:41:00,
2013-04-30 06:52:00,58.0,57.0,-100.00,ESE,110,0.0,2.0,94,-99.99,,,-99.99,,2013-04-30 10:52:00,
2013-04-30 07:02:00,58.0,57.0,-100.00,ENE,75,0.0,1.0,94,-99.99,,,-99.99,,2013-04-30 11:02:00,
2013-04-30 07:11:00,58.0,57.0,-100.00,ENE,75,0.0,1.0,94,-99.99,,,-99.99,,2013-04-30 11:11:00,
2013-04-30 07:21:00,58.0,56.0,-100.00,ENE,65,0.0,0.0,94,-99.99,,,-99.99,,2013-04-30 11:21:00,
2013-04-30 07:30:00,59.0,57.0,-100.00,East,80,0.0,4.0,94,-99.99,,,-99.99,,2013-04-30 11:30:00,
2013-04-30 07:32:00,58.0,56.0,-100.00,ENE,65,0.0,0.0,94,-99.99,,,-99.99,,2013-04-30 11:32:00,
2013-04-30 07:42:00,58.0,57.0,-100.00,ESE,110,0.0,3.0,94,-99.99,,,-99.99,,2013-04-30 11:42:00,
2013-04-30 07:51:00,58.0,57.0,-100.00,ESE,110,0.0,3.0,94,-99.99,,,-99.99,,2013-04-30 11:51:00,
2013-04-30 08:01:00,59.0,57.0,-100.00,East,80,0.0,4.0,94,-99.99,,,-99.99,,2013-04-30 12:01:00,
2013-04-30 08:11:00,59.0,57.0,-100.00,East,80,0.0,4.0,94,-99.99,,,-99.99,,2013-04-30 12:11:00,
2013-04-30 08:22:00,59.0,57.0,-100.00,East,80,0.0,4.0,94,-99.99,,,-99.99,,2013-04-30 12:22:00,
2013-04-30 09:30:00,63.0,61.0,-100.00,ENE,60,5.0,9.0,94,-99.99,,,-99.99,,2013-04-30 13:30:00,
2013-04-30 09:41:00,63.0,61.0,-100.00,ENE,75,2.0,6.0,94,-99.99,,,-99.99,,2013-04-30 13:41:00,
2013-04-30 09:52:00,63.0,61.0,-100.00,ENE,75,2.0,6.0,94,-99.99,,,-99.99,,2013-04-30 13:52:00,
2013-04-30 10:02:00,63.0,61.0,-100.00,ENE,60,5.0,9.0,94,-99.99,,,-99.99,,2013-04-30 14:02:00,
2013-04-30 10:11:00,63.0,61.0,-100.00,ENE,60,5.0,9.0,94,-99.99,,,-99.99,,2013-04-30 14:11:00,
2013-04-30 10:21:00,63.0,61.0,-100.00,ENE,60,5.0,9.0,94,-99.99,,,-99.99,,2013-04-30 14:21:00,
2013-04-30 10:52:00,67.0,64.0,-100.00,East,80,4.0,9.0,90,-99.99,,,-99.99,,2013-04-30 14:52:00,
2013-04-30 11:02:00,68.0,62.0,-100.00,East,80,5.0,8.0,83,-99.99,,,-99.99,,2013-04-30 15:02:00,
2013-04-30 11:11:00,68.0,62.0,-100.00,East,80,5.0,8.0,83,-99.99,,,-99.99,,2013-04-30 15:11:00,
2013-04-30 11:21:00,68.0,62.0,-100.00,NE,50,4.0,8.0,80,-99.99,,,-99.99,,2013-04-30 15:21:00,
2013-04-30 11:32:00,68.0,62.0,-100.00,NE,50,4.0,8.0,80,-99.99,,,-99.99,,2013-04-30 15:32:00,
2013-04-30 11:42:00,68.0,62.0,-100.00,NE,50,4.0,8.0,80,-99.99,,,-99.99,,2013-04-30 15:42:00,
2013-04-30 11:52:00,69.0,62.0,-100.00,East,90,4.0,9.0,77,-99.99,,,-99.99,,2013-04-30 15:52:00,
2013-04-30 12:02:00,70.0,62.0,-100.00,ESE,115,4.0,8.0,75,-99.99,,,-99.99,,2013-04-30 16:02:00,
2013-04-30 12:12:00,72.0,62.0,-100.00,East,100,2.0,7.0,73,-99.99,,,-99.99,,2013-04-30 16:12:00,
2013-04-30 12:23:00,72.0,62.0,-100.00,ENE,70,7.0,12.0,72,-99.99,,,-99.99,,2013-04-30 16:23:00,
2013-04-30 12:33:00,72.0,62.0,-100.00,ENE,65,6.0,11.0,70,-99.99,,,-99.99,,2013-04-30 16:33:00,
2013-04-30 12:42:00,72.0,61.0,-100.00,NE,55,6.0,14.0,70,-99.99,,,-99.99,,2013-04-30 16:42:00,
2013-04-30 12:52:00,72.0,62.0,-100.00,ENE,65,6.0,11.0,70,-99.99,,,-99.99,,2013-04-30 16:52:00,
2013-04-30 13:02:00,74.0,62.0,-100.00,ENE,75,5.0,11.0,67,-99.99,,,-99.99,,2013-04-30 17:02:00,
2013-04-30 13:12:00,75.0,63.0,-100.00,SE,130,1.0,11.0,66,-99.99,,,-99.99,,2013-04-30 17:12:00,
2013-04-30 13:22:00,76.0,62.0,-100.00,East,95,4.0,9.0,62,-99.99,,,-99.99,,2013-04-30 17:22:00,
2013-04-30 13:32:00,76.0,62.0,-100.00,East,95,4.0,9.0,62,-99.99,,,-99.99,,2013-04-30 17:32:00,
2013-04-30 13:42:00,77.0,62.0,-100.00,ESE,110,4.0,12.0,60,-99.99,,,-99.99,,2013-04-30 17:42:00,
2013-04-30 13:52:00,74.0,60.0,-100.00,East,95,4.0,11.0,62,-99.99,,,-99.99,,2013-04-30 17:52:00,
2013-04-30 14:01:00,74.0,61.0,-100.00,NE,50,4.0,11.0,63,-99.99,,,-99.99,,2013-04-30 18:01:00,
2013-04-30 14:11:00,74.0,60.0,-100.00,ESE,120,6.0,11.0,62,-99.99,,,-99.99,,2013-04-30 18:11:00,
2013-04-30 14:22:00,76.0,62.0,-100.00,SSE,150,6.0,14.0,61,-99.99,,,-99.99,,2013-04-30 18:22:00,
2013-04-30 14:32:00,75.0,60.0,-100.00,East,80,5.0,11.0,60,-99.99,,,-99.99,,2013-04-30 18:32:00,
2013-04-30 14:42:00,75.0,60.0,-100.00,SE,140,9.0,11.0,58,-99.99,,,-99.99,,2013-04-30 18:42:00,
2013-04-30 14:52:00,75.0,60.0,-100.00,SE,140,9.0,11.0,58,-99.99,,,-99.99,,2013-04-30 18:52:00,
2013-04-30 15:01:00,76.0,59.0,-100.00,ENE,75,11.0,15.0,57,-99.99,,,-99.99,,2013-04-30 19:01:00,
2013-04-30 15:11:00,74.0,59.0,-100.00,East,85,4.0,14.0,60,-99.99,,,-99.99,,2013-04-30 19:11:00,
2013-04-30 15:22:00,76.0,60.0,-100.00,ESE,110,5.0,8.0,58,-99.99,,,-99.99,,2013-04-30 19:22:00,
2013-04-30 15:32:00,77.0,60.0,-100.00,SE,140,5.0,13.0,56,-99.99,,,-99.99,,2013-04-30 19:32:00,
2013-04-30 15:42:00,75.0,59.0,-100.00,East,95,4.0,10.0,58,-99.99,,,-99.99,,2013-04-30 19:42:00,
2013-04-30 15:52:00,75.0,59.0,-100.00,ENE,65,2.0,15.0,57,-99.99,,,-99.99,,2013-04-30 19:52:00,
2013-04-30 16:02:00,76.0,58.0,-100.00,ENE,65,4.0,6.0,55,-99.99,,,-99.99,,2013-04-30 20:02:00,
2013-04-30 16:11:00,75.0,59.0,-100.00,ESE,115,5.0,11.0,56,-99.99,,,-99.99,,2013-04-30 20:11:00,
2013-04-30 16:22:00,75.0,58.0,-100.00,SE,145,7.0,11.0,56,-99.99,,,-99.99,,2013-04-30 20:22:00,
2013-04-30 16:32:00,76.0,58.0,-100.00,ESE,120,6.0,11.0,53,-99.99,,,-99.99,,2013-04-30 20:32:00,
2013-04-30 16:42:00,78.0,58.0,-100.00,SSE,150,8.0,11.0,51,-99.99,,,-99.99,,2013-04-30 20:42:00,
2013-04-30 16:52:00,78.0,58.0,-100.00,SSE,150,8.0,11.0,51,-99.99,,,-99.99,,2013-04-30 20:52:00,
2013-04-30 17:02:00,78.0,56.0,-100.00,South,170,4.0,11.0,48,-99.99,,,-99.99,,2013-04-30 21:02:00,
2013-04-30 17:11:00,79.0,57.0,-100.00,South,180,1.0,4.0,47,-99.99,,,-99.99,,2013-04-30 21:11:00,
2013-04-30 17:22:00,76.0,57.0,-100.00,East,100,3.0,9.0,52,-99.99,,,-99.99,,2013-04-30 21:22:00,
2013-04-30 17:32:00,76.0,57.0,-100.00,East,100,3.0,9.0,52,-99.99,,,-99.99,,2013-04-30 21:32:00,
2013-04-30 17:42:00,69.0,62.0,-100.00,East,80,6.0,14.0,77,-99.99,,,-99.99,,2013-04-30 21:42:00,
2013-04-30 17:53:00,68.0,62.0,-100.00,East,95,5.0,9.0,80,-99.99,,,-99.99,,2013-04-30 21:53:00,
2013-04-30 18:03:00,68.0,62.0,-100.00,East,100,4.0,6.0,80,-99.99,,,-99.99,,2013-04-30 22:03:00,
2013-04-30 18:12:00,68.0,62.0,-100.00,East,100,4.0,6.0,80,-99.99,,,-99.99,,2013-04-30 22:12:00,
2013-04-30 18:23:00,69.0,64.0,-100.00,East,100,1.0,6.0,82,-99.99,,,-99.99,,2013-04-30 22:23:00,
2013-04-30 18:33:00,71.0,65.0,-100.00,East,85,1.0,6.0,82,-99.99,,,-99.99,,2013-04-30 22:33:00,
2013-04-30 18:42:00,71.0,65.0,-100.00,East,100,3.0,6.0,82,-99.99,,,-99.99,,2013-04-30 22:42:00,
2013-04-30 18:52:00,71.0,65.0,-100.00,East,95,3.0,9.0,81,-99.99,,,-99.99,,2013-04-30 22:52:00,
2013-04-30 19:03:00,71.0,65.0,-100.00,East,90,4.0,9.0,80,-99.99,,,-99.99,,2013-04-30 23:03:00,
2013-04-30 19:12:00,71.0,63.0,-100.00,ESE,105,4.0,9.0,76,-99.99,,,-99.99,,2013-04-30 23:12:00,
2013-04-30 19:22:00,71.0,63.0,-100.00,East,95,1.0,7.0,76,-99.99,,,-99.99,,2013-04-30 23:22:00,
2013-04-30 19:32:00,71.0,63.0,-100.00,East,85,1.0,6.0,76,-99.99,,,-99.99,,2013-04-30 23:32:00,
2013-04-30 19:42:00,71.0,63.0,-100.00,ENE,70,2.0,6.0,76,-99.99,,,-99.99,,2013-04-30 23:42:00,
2013-04-30 19:52:00,70.0,62.0,-100.00,East,80,3.0,6.0,76,-99.99,,,-99.99,,2013-04-30 23:52:00,
2013-04-30 20:02:00,70.0,63.0,-100.00,East,100,2.0,6.0,79,-99.99,,,-99.99,,2013-05-01 00:02:00,
2013-04-30 20:11:00,69.0,62.0,-100.00,East,80,3.0,7.0,79,-99.99,,,-99.99,,2013-05-01 00:11:00,
2013-04-30 20:22:00,69.0,62.0,-100.00,East,80,3.0,7.0,79,-99.99,,,-99.99,,2013-05-01 00:22:00,
2013-04-30 20:32:00,69.0,62.0,-100.00,ENE,60,1.0,5.0,79,-99.99,,,-99.99,,2013-05-01 00:32:00,
2013-04-30 20:42:00,69.0,62.0,-100.00,ENE,60,1.0,5.0,79,-99.99,,,-99.99,,2013-05-01 00:42:00,
2013-04-30 20:52:00,67.0,61.0,-100.00,ENE,70,1.0,4.0,81,-99.99,,,-99.99,,2013-05-01 00:52:00,
2013-04-30 21:01:00,67.0,61.0,-100.00,East,90,1.0,4.0,82,-99.99,,,-99.99,,2013-05-01 01:01:00,
2013-04-30 21:11:00,67.0,61.0,-100.00,East,85,2.0,4.0,83,-99.99,,,-99.99,,2013-05-01 01:11:00,
2013-04-30 21:21:00,66.0,61.0,-100.00,ENE,75,1.0,4.0,84,-99.99,,,-99.99,,2013-05-01 01:21:00,
2013-04-30 21:32:00,66.0,61.0,-100.00,ENE,70,1.0,4.0,84,-99.99,,,-99.99,,2013-05-01 01:32:00,
2013-04-30 21:42:00,66.0,61.0,-100.00,ESE,115,0.0,4.0,84,-99.99,,,-99.99,,2013-05-01 01:42:00,
2013-04-30 21:52:00,66.0,61.0,-100.00,East,95,0.0,4.0,84,-99.99,,,-99.99,,2013-05-01 01:52:00,
2013-04-30 22:02:00,65.0,61.0,-100.00,East,85,2.0,4.0,85,-99.99,,,-99.99,,2013-05-01 02:02:00,
2013-04-30 22:11:00,65.0,61.0,-100.00,East,90,2.0,5.0,86,-99.99,,,-99.99,,2013-05-01 02:11:00,
2013-04-30 22:21:00,65.0,61.0,-100.00,ENE,75,2.0,5.0,86,-99.99,,,-99.99,,2013-05-01 02:21:00,
2013-04-30 22:32:00,65.0,60.0,-100.00,ENE,65,2.0,4.0,86,-99.99,,,-99.99,,2013-05-01 02:32:00,
2013-04-30 22:42:00,64.0,60.0,-100.00,East,80,2.0,4.0,87,-99.99,,,-99.99,,2013-05-01 02:42:00,
2013-04-30 22:52:00,64.0,60.0,-100.00,ENE,70,4.0,5.0,88,-99.99,,,-99.99,,2013-05-01 02:52:00,
2013-04-30 23:02:00,64.0,60.0,-100.00,ENE,65,1.0,6.0,88,-99.99,,,-99.99,,2013-05-01 03:02:00,
2013-04-30 23:11:00,64.0,60.0,-100.00,East,80,3.0,7.0,89,-99.99,,,-99.99,,2013-05-01 03:11:00,
2013-04-30 23:22:00,63.0,60.0,-100.00,ENE,70,2.0,6.0,89,-99.99,,,-99.99,,2013-05-01 03:22:00,
2013-04-30 23:33:00,63.0,60.0,-100.00,SSE,150,0.0,4.0,90,-99.99,,,-99.99,,2013-05-01 03:33:00,
2013-04-30 23:43:00,63.0,60.0,-100.00,East,100,0.0,3.0,90,-99.99,,,-99.99,,2013-05-01 03:43:00,
2013-04-30 23:53:00,62.0,60.0,-100.00,East,95,1.0,2.0,91,-99.99,,,-99.99,,2013-05-01 03:53:00,